Location: Unspecified
(0.0000°N, 0.0000°E)
Time: 17:35:00
(UTC+00:00)

Envisat - Pass Details

Date: 01 October 2021
Orbit: 764 x 766 km, 98.2° (Epoch: 22 October)

Event Time Altitude Azimuth Distance (km) Brightness Sun altitude
Rises 03:47:38 0° 42° (NE) 3,214 6.7 -30.5°
Reaches altitude 10° 03:50:41 10° 62° (ENE) 2,292 6.1 -29.7°
Maximum altitude 03:53:57 17° 102° (ESE) 1,832 5.7 -28.9°
Drops below altitude 10° 03:57:14 10° 143° (SE) 2,298 5.9 -28.1°
Sets 04:00:16 0° 162° (SSE) 3,227 6.5 -27.3°
